Flag for China Weather past 2 weeks in Tsingtao, Shandong, China

Now
36 °F

Fog.


Feels Like: 29 °F
Forecast: 25 / 33 °F
Wind: 8 mph from Northwest

Location: Qingdao Airport

Current Time: Jan 26, 2015 at 2:36:14 PM

Latest Report: Jan 26, 2015 at 2:00 PM


Visibility: 1 mi

Pressure: 30.27 "Hg

Humidity: 81%

Dew point: 30 °F

Location of TsingtaoLocation

Historic Weather in Tsingtao — Graph

°F

Tsingtao temperature yesterday

Maximum temperature yesterday: 43 °F (at 12:00 AM)
Minimum temperature yesterday: 37 °F (at 9:00 PM)
Average temperature yesterday: 40 °F

Past Weeks' High & Low Weather Summary

 TemperatureHumidityPressure
High52 °F (Jan 24, 2:00 PM)93% (Jan 21, 3:00 PM)30.72 "Hg (Jan 21, 3:00 PM)
Low19 °F (Jan 17, 5:00 AM)21% (Jan 19, 2:00 PM)30.04 "Hg (Jan 18, 3:00 PM)
Average36 °F63%30.33 "Hg
* Reported Jan 11 1:00 PM — Jan 26 1:00 PM, Tsingtao, Weather by CustomWeather, © 2014

Note: Actual official high and low records may vary slightly from our data, if they occured in-between our weather recording intervals... More about our weather records

Advertising

Tsingtao weather history for previous 24 hours

 ConditionsComfort  
Time TempWeatherWind HumidityBarometerVisibility
1:00 PM
Jan 26
34 °FFog.13 mph87%30.27 "Hg1 mi
12:00 PM34 °FFog.6 mph87%30.27 "Hg1 mi
11:00 AM34 °FFog.8 mph87%30.30 "Hg1 mi
10:00 AM34 °FFog.1 mph87%30.30 "Hg1 mi
9:00 AM34 °FFog.6 mph87%30.30 "Hg1 mi
8:00 AM34 °FFog.6 mph87%30.27 "Hg1 mi
7:00 AM34 °FFog.3 mph87%30.24 "Hg1 mi
6:00 AM36 °FFog.6 mph87%30.24 "Hg1 mi
5:00 AM36 °FFog.3 mph87%30.21 "Hg1 mi
4:00 AM36 °FFog.3 mph87%30.21 "Hg1 mi
3:00 AM36 °FFog.6 mph93%30.24 "Hg1 mi
2:00 AM36 °FFog.6 mph93%30.27 "Hg2 mi
1:00 AM37 °FFog.6 mph87%30.27 "Hg2 mi
12:00 AM37 °FFog.6 mph87%30.27 "Hg2 mi
11:00 PM
Jan 25
37 °FFog.6 mph87%30.24 "Hg2 mi
10:00 PM37 °FFog.8 mph87%30.24 "Hg2 mi
9:00 PM37 °FFog.8 mph87%30.21 "Hg2 mi
8:00 PM39 °FFog.8 mph81%30.21 "Hg2 mi
7:00 PM39 °FFog.6 mph87%30.24 "Hg2 mi
6:00 PM39 °FFog.8 mph87%30.18 "Hg2 mi
5:00 PM39 °FFog.8 mph87%30.15 "Hg2 mi
4:00 PM39 °FFog.8 mph87%30.18 "Hg1 mi
3:00 PM39 °FFog.10 mph87%30.15 "Hg1 mi
2:00 PM39 °FFog.8 mph93%30.15 "Hg1 mi
Weather by CustomWeather, © 2014

See weather overviewHow to use our weather pages